This is the latest recevied weather packets stored in our database for station/object G3VHU. If no packets are shown the sender has not sent any weather packets the latest 1 day(s).
| Time | Temp. | Humidity | Pressure | Rain* | Wind** | Luminosity | Snow |
|---|---|---|---|---|---|---|---|
| 1778022446 | 7.78° C | 78% | 1016.2 hPa | 0 mm | 1.79 m/s, 61° | - | - |
| 1778022145 | 7.78° C | 78% | 1016.3 hPa | 0 mm | 1.79 m/s, 22° | - | - |
| 1778021845 | 7.78° C | 78% | 1016.3 hPa | 0 mm | 1.79 m/s, 49° | - | - |
| 1778021545 | 7.78° C | 78% | 1016.3 hPa | 0 mm | 2.24 m/s, 0° | - | - |
| 1778021245 | 7.78° C | 78% | 1016.3 hPa | 0 mm | 2.24 m/s, 84° | - | - |
| 1778020945 | 7.78° C | 79% | 1016.3 hPa | 0 mm | 2.24 m/s, 67° | - | - |
| 1778020644 | 7.78° C | 79% | 1016.3 hPa | 0 mm | 2.24 m/s, 345° | - | - |
| 1778020345 | 7.78° C | 79% | 1016.4 hPa | 0 mm | 2.24 m/s, 75° | - | - |
| 1778020045 | 7.22° C | 79% | 1016.4 hPa | 0 mm | 1.79 m/s, 30° | - | - |
| 1778019745 | 7.78° C | 79% | 1016.4 hPa | 0 mm | 1.79 m/s, 86° | - | - |
| 1778019444 | 7.22° C | 79% | 1016.5 hPa | 0 mm | 1.79 m/s, 308° | - | - |
| 1778019145 | 7.22° C | 79% | 1016.5 hPa | 0 mm | 1.79 m/s, 32° | - | - |
| 1778018845 | 7.78° C | 79% | 1016.6 hPa | 0 mm | 1.79 m/s, 326° | - | - |
| 1778018538 | 7.78° C | 79% | 1016.5 hPa | 0 mm | 1.79 m/s, 338° | - | - |
| 1778018232 | 7.78° C | 79% | 1016.5 hPa | 0 mm | 1.79 m/s, 120° | - | - |
| 1778017927 | 7.78° C | 80% | 1016.4 hPa | 0 mm | 1.79 m/s, 340° | - | - |
| 1778017626 | 7.78° C | 80% | 1016.4 hPa | 0 mm | 2.24 m/s, 237° | - | - |
| 1778017326 | 7.78° C | 80% | 1016.4 hPa | 0 mm | 2.24 m/s, 74° | - | - |
| 1778017026 | 7.78° C | 80% | 1016.5 hPa | 0 mm | 2.24 m/s, 297° | - | - |
| 1778016727 | 7.78° C | 79% | 1016.3 hPa | 0 mm | 2.68 m/s, 4° | - | - |
| 1778016426 | 7.78° C | 79% | 1016.5 hPa | 0 mm | 2.68 m/s, 354° | - | - |
| 1778016126 | 7.78° C | 79% | 1016.5 hPa | 0 mm | 2.68 m/s, 28° | - | - |
| 1778015827 | 7.78° C | 80% | 1016.5 hPa | 0 mm | 2.24 m/s, 356° | - | - |
| 1778015527 | 7.78° C | 80% | 1016.6 hPa | 0 mm | 2.24 m/s, 342° | - | - |
| 1778015227 | 7.78° C | 80% | 1016.5 hPa | 0 mm | 2.24 m/s, 275° | - | - |
* Rain latest hour (hover to see other rain measurements)
** Current wind speed in m/s (hover to see current wind gust speed)